Content
SEND FEEDBACK

Daily
Averages
Monthly
Summary
United States of America

WILMINGTON, NORTH CAROLINA


Home > North America > United States > North Carolina
Elevation: 72 feet     Latitude: 34 16N     Longitude: 077 54W

WEATHER
 
SELECT A DAY
Number of Records: 208,780;   Date Range: 1/1/95 - 7/26/14
 
SHARE

PRINT THIS DATA

[ ← Previous Day ]
WEATHER ALMANAC - DECEMBER 7, 2013
[ Next Day → ]
[ °C ]   °F
Weather ElementAverageHighLow
Temperature55.5 °F72 °F (1:53 am)43 °F (11:53 pm)
Dewpoint50.5 °F66.9 °F (1:53 am)37.4 °F (11:36 pm)
Humidity83.5 %93 % (2:20 pm)73 % (9:53 am)
Barometer30.26 in30.41 in (10:44 pm)30.09 in (1:53 am)
Wind Speed12.4 mph23 mph (10:21 am)
Wind Gust31.1 mph (10:21 am)
Weather ElementAverage
Visibility7.1 mi
Wind DirectionESE (128 °)

Weather ElementTotal
Precipitation0.18 in
Heating Degree Days7.5 (Base 65)
Growing Degree Days7.5 (Base 50)
Averaged from 35 records on December 7, 2013
WEATHER CONDITIONS BREAKOUT
WIND DIRECTION BREAKOUT
WEATHER BY HOUR - DECEMBER 7, 2013
[ °C ]   °F
Local TimeTemperatureDewpointHumidityBarometerVisibilityWind DirectionWind SpeedGust SpeedPrecipitationEventsConditions
1:53 AM72.0 °F66.9 °F84 %30.09 in10.0 miSW (220°)12.7 mph20.7 mphOvercast
2:41 AM71.6 °F66.2 °F83 %30.09 in10.0 miSW (220°)17.3 mph27.6 mphScattered Clouds
2:53 AM72.0 °F66.0 °F81 %30.09 in10.0 miSW (220°)15.0 mph25.3 mphScattered Clouds
3:53 AM71.1 °F64.9 °F81 %30.09 in10.0 miSW (220°)12.7 mph20.7 mphClear
4:53 AM70.0 °F64.0 °F81 %30.10 in10.0 miSSW (210°)9.2 mphClear
5:53 AM70.0 °F63.0 °F78 %30.10 in10.0 miSW (220°)9.2 mph19.6 mphClear
6:53 AM70.0 °F62.1 °F76 %30.11 in10.0 miSW (220°)9.2 mph18.4 mphClear
7:53 AM70.0 °F62.1 °F76 %30.14 in10.0 miSW (220°)10.4 mphMostly Cloudy
8:53 AM71.1 °F63.0 °F75 %30.16 in10.0 miWSW (240°)8.1 mphOvercast
9:53 AM72.0 °F63.0 °F73 %30.18 in10.0 miWest (270°)10.4 mph0.00 inRainLight Rain
10:10 AM71.6 °F64.4 °F78 %30.19 in10.0 miWest (280°)9.2 mph0.00 inOvercast
10:21 AM69.8 °F62.6 °F78 %30.20 in10.0 miNNW (340°)23.0 mph31.1 mph0.00 inOvercast
10:35 AM57.2 °F53.6 °F88 %30.22 in6.0 miNorth (360°)16.1 mph0.00 inRainLight Rain
10:53 AM54.0 °F51.1 °F90 %30.23 in3.0 miNorth (360°)13.8 mph0.01 inRainLight Rain
11:53 AM51.1 °F46.9 °F86 %30.25 in5.0 miNNE (20°)12.7 mph20.7 mph0.01 inOvercast
12:53 PM51.1 °F46.9 °F86 %30.25 in4.0 miNorth (10°)11.5 mph19.6 mphOvercast
1:53 PM50.0 °F45.0 °F83 %30.25 in10.0 miNorth (10°)11.5 mph24.2 mphOvercast
2:03 PM50.0 °F46.4 °F87 %30.25 in5.0 miNorth (10°)11.5 mphOvercast
2:20 PM48.2 °F46.4 °F93 %30.26 in2.0 miNorth (360°)11.5 mphOvercast
2:48 PM48.2 °F44.6 °F87 %30.26 in5.0 miNNE (20°)12.7 mph19.6 mph0.00 inRainLight Rain
2:53 PM48.9 °F45.0 °F86 %30.26 in5.0 miNorth (10°)12.7 mph19.6 mph0.00 inRainLight Rain
3:53 PM48.0 °F44.1 °F86 %30.29 in5.0 miNorth (10°)9.2 mph0.00 inOvercast
4:53 PM46.9 °F43.0 °F86 %30.30 in3.0 miNNE (20°)10.4 mphOvercast
5:53 PM46.0 °F43.0 °F89 %30.33 in5.0 miNNE (30°)11.5 mphOvercast
6:53 PM46.0 °F42.1 °F86 %30.35 in4.0 miNNE (20°)15.0 mphOvercast
7:53 PM46.0 °F42.1 °F86 %30.37 in4.0 miNNE (30°)15.0 mph0.02 inRainRain
8:53 PM45.0 °F41.0 °F86 %30.39 in3.0 miNE (40°)10.4 mph0.07 inRainRain
9:33 PM44.6 °F41.0 °F87 %30.40 in5.0 miNE (40°)13.8 mph0.03 inRainLight Rain
9:53 PM45.0 °F41.0 °F86 %30.39 in3.0 miNE (40°)15.0 mph0.04 inRainLight Rain
10:03 PM44.6 °F41.0 °F87 %30.40 in5.0 miNE (40°)13.8 mph0.00 inRainLight Rain
10:44 PM44.6 °F41.0 °F87 %30.41 in10.0 miNNE (20°)10.4 mph0.00 inOvercast
10:53 PM45.0 °F41.0 °F86 %30.41 in10.0 miNNE (20°)9.2 mph0.00 inOvercast
11:26 PM44.6 °F39.2 °F81 %30.40 in7.0 miNE (40°)18.4 mph23.0 mphOvercast
11:36 PM44.6 °F37.4 °F76 %30.40 in10.0 miNE (40°)12.7 mph21.9 mphOvercast
11:53 PM43.0 °F37.9 °F82 %30.40 in10.0 miNE (50°)10.4 mphOvercast
Hourly data recorded from KILM, located miles away from Wilmington, North Carolina







STORIES FROM OUR PARTNERS